Location: Berlise
(49.6641°N, 4.1077°E)
Time: 20:05:39
(UTC+00:00)

ALOS - Pass Details

Date: 27 January 2021
Orbit: 682 x 685 km, 97.9° (Epoch: 27 February)

Event Time Altitude Azimuth Distance (km) Brightness Sun altitude
Rises 06:11:26 0° 358° (N) 3,060 5.4 -11.5°
Reaches altitude 10° 06:15:11 10° 327° (NNW) 2,138 4.4 -11.0°
Enters shadow 06:16:22 12° 312° (NW) 2,031 4.2 -10.8°
